EW5239 Weather Reports


Display with metric or nautical units.
time (UTC)temp
F
wind
direction
speed
MPH
gust
MPH
rain 1hr
in
rain 24hr
in
rain mn
in
humidity
%
barometer
mb
20260506215006 58 308 3.0 4.0 0.20 0.20 0.20 90 1005.2
20260506215004 58 321 3.0 4.0 0.22 0.22 0.22 91 1006.9
20260506214505 58 308 4.0 6.0 0.20 0.20 0.20 89 1005.3
20260506214503 58 324 4.0 7.0 0.22 0.22 0.22 91 1006.9
20260506214003 58 295 5.0 7.0 0.22 0.22 0.22 90 1006.8
20260506213504 58 289 4.0 6.0 0.20 0.20 0.20 88 1005.3
20260506213005 59 284 4.0 6.0 0.19 0.19 0.19 87 1005.2
20260506212504 59 280 4.0 6.0 0.19 0.19 0.19 86 1005.2
20260506212013 58 295 6.0 8.0 0.21 0.21 0.21 86 1006.9
20260506212005 59 303 6.0 11.0 0.19 0.19 0.19 85 1005.0
20260506211724 59 297 7.0 11.0 0.20 0.20 0.20 86 1007.0
20260506211505 59 314 7.0 11.0 0.19 0.19 0.19 84 1005.0
20260506211225 59 305 8.0 11.0 0.20 0.20 0.20 85 1006.6
20260506210231 60 296 8.0 11.0 0.15 0.15 0.15 79 1006.4
20260506210005 60 287 7.0 11.0 0.13 0.13 0.13 77 1004.7
20260506205725 61 301 6.0 11.0 0.12 0.12 0.12 76 1006.4
20260506205505 61 289 5.0 8.0 0.06 0.06 0.06 73 1004.5
20260506205224 61 297 3.0 7.0 0.00 0.00 0.00 74 1006.1
20260506205004 62 289 3.0 6.0 0.00 0.00 0.00 72 1004.4
20260506204724 62 96 1.0 3.0 0.00 0.00 0.00 73 1005.9
20260506204504 62 129 2.0 4.0 0.00 0.00 0.00 72 1003.8
20260506204224 61 157 2.0 4.0 0.00 0.00 0.00 73 1005.5
20260506204005 62 184 3.0 4.0 0.00 0.00 0.00 72 1003.8
20260506203724 61 216 3.0 4.0 0.00 0.00 0.00 73 1005.5
20260506203504 61 239 3.0 4.0 0.00 0.00 0.00 72 1004.0
20260506203005 62 263 2.0 4.0 0.00 0.00 0.00 70 1004.0
20260506202724 61 248 2.0 4.0 0.00 0.00 0.00 71 1005.6
20260506202505 62 270 0.0 3.0 0.00 0.00 0.00 69 1003.8
20260506202224 61 119 1.0 2.0 0.00 0.00 0.00 70 1005.3
20260506202004 62 0 0.0 0.0 0.00 0.00 0.00 68 1003.8
20260506201724 61 116 1.0 2.0 0.00 0.00 0.00 69 1005.4
20260506201505 62 0 0.0 0.0 0.00 0.00 0.00 67 1003.6
20260506201224 61 0 0.0 0.0 0.00 0.00 0.00 68 1005.5
20260506201004 62 0 0.0 0.0 0.00 0.00 0.00 67 1003.7
20260506200724 62 0 0.0 0.0 0.00 0.00 0.00 67 1005.6
20260506200505 63 270 0.0 2.0 0.00 0.00 0.00 65 1003.9
20260506200005 63 311 0.0 2.0 0.00 0.00 0.00 65 1003.9
20260506195724 62 110 0.0 2.0 0.00 0.00 0.00 66 1005.6
20260506195505 63 97 1.0 2.0 0.00 0.00 0.00 64 1004.0
20260506195225 62 103 1.0 2.0 0.00 0.00 0.00 65 1005.8
20260506195005 63 107 1.0 2.0 0.00 0.00 0.00 64 1004.0
20260506194724 63 89 1.0 2.0 0.00 0.00 0.00 64 1005.7
20260506194504 64 90 0.0 2.0 0.00 0.00 0.00 63 1003.9
20260506194005 64 0 0.0 0.0 0.00 0.00 0.00 63 1004.0
20260506193724 63 90 0.0 2.0 0.00 0.00 0.00 64 1005.6
20260506193505 64 0 0.0 0.0 0.00 0.00 0.00 62 1004.2
20260506193224 63 0 0.0 0.0 0.00 0.00 0.00 63 1005.7
20260506193004 64 0 0.0 0.0 0.00 0.00 0.00 61 1004.3
20260506192724 63 0 0.0 0.0 0.00 0.00 0.00 63 1006.0
20260506192224 64 0 0.0 0.0 0.00 0.00 0.00 62 1005.7
20260506192004 65 0 0.0 0.0 0.00 0.00 0.00 60 1004.2
20260506191504 66 0 0.0 0.0 0.00 0.00 0.00 59 1004.0
20260506191224 65 225 0.0 1.0 0.00 0.00 0.00 59 1005.8
20260506191005 66 0 0.0 0.0 0.00 0.00 0.00 57 1004.0
20260506190505 67 0 0.0 0.0 0.00 0.00 0.00 57 1004.0
20260506190231 66 0 0.0 0.0 0.00 0.00 0.00 57 1005.6
20260506190005 67 0 0.0 0.0 0.00 0.00 0.00 56 1003.8
20260506185505 67 0 0.0 0.0 0.00 0.00 0.00 56 1003.9
20260506185004 67 0 0.0 0.0 0.00 0.00 0.00 56 1003.7
20260506184725 67 0 0.0 0.0 0.00 0.00 0.00 56 1005.5
20260506184504 67 0 0.0 0.0 0.00 0.00 0.00 55 1003.8
20260506184224 67 0 0.0 0.0 0.00 0.00 0.00 55 1005.4
20260506184005 68 0 0.0 0.0 0.00 0.00 0.00 55 1003.6
20260506183724 67 225 0.0 1.0 0.00 0.00 0.00 55 1005.4
20260506183504 68 0 0.0 0.0 0.00 0.00 0.00 54 1003.7
20260506182725 68 265 1.0 2.0 0.00 0.00 0.00 55 1005.4
20260506182224 68 268 1.0 2.0 0.00 0.00 0.00 53 1005.3
20260506182005 69 0 0.0 0.0 0.00 0.00 0.00 53 1003.5
20260506181504 69 0 0.0 0.0 0.00 0.00 0.00 53 1003.5
20260506181224 69 270 0.0 1.0 0.00 0.00 0.00 52 1005.1
20260506181004 70 0 0.0 0.0 0.00 0.00 0.00 51 1003.4
20260506180724 70 270 0.0 1.0 0.00 0.00 0.00 49 1005.0
20260506180505 71 314 0.0 2.0 0.00 0.00 0.00 49 1003.3
20260506180230 70 225 0.0 1.0 0.00 0.00 0.00 49 1005.0
20260506180005 71 282 1.0 2.0 0.00 0.00 0.00 49 1003.3
20260506175724 71 257 0.0 1.0 0.00 0.00 0.00 48 1005.0
20260506175505 71 269 1.0 2.0 0.00 0.00 0.00 48 1003.4
20260506175225 71 309 0.0 1.0 0.00 0.00 0.00 48 1005.0
20260506175005 72 297 1.0 2.0 0.00 0.00 0.00 46 1003.4
20260506174725 71 300 1.0 3.0 0.00 0.00 0.00 48 1004.9
20260506174225 72 308 1.0 3.0 0.00 0.00 0.00 46 1005.0
20260506174005 73 295 2.0 4.0 0.00 0.00 0.00 46 1003.5
20260506173724 72 307 2.0 4.0 0.00 0.00 0.00 46 1004.9
20260506173505 74 286 2.0 4.0 0.00 0.00 0.00 46 1003.5
20260506173225 72 302 3.0 5.0 0.00 0.00 0.00 45 1005.0
20260506173004 74 293 3.0 5.0 0.00 0.00 0.00 46 1003.6
20260506172724 72 295 3.0 5.0 0.00 0.00 0.00 45 1004.9
20260506172504 74 291 4.0 5.0 0.00 0.00 0.00 45 1003.5
20260506172225 72 273 4.0 5.0 0.00 0.00 0.00 44 1005.0
20260506171724 73 254 4.0 5.0 0.00 0.00 0.00 43 1005.3
20260506171504 74 260 5.0 6.0 0.00 0.00 0.00 45 1003.5
20260506171224 73 231 4.0 7.0 0.00 0.00 0.00 44 1005.1
20260506171004 74 255 5.0 6.0 0.00 0.00 0.00 45 1003.4
20260506170725 73 245 5.0 7.0 0.00 0.00 0.00 43 1005.1
20260506165724 73 275 5.0 6.0 0.00 0.00 0.00 44 1005.0
20260506165005 73 284 6.0 8.0 0.00 0.00 0.00 45 1003.5
20260506164725 72 287 6.0 8.0 0.00 0.00 0.00 44 1005.2
20260506164224 72 296 6.0 8.0 0.00 0.00 0.00 44 1005.1
20260506164005 73 302 6.0 9.0 0.00 0.00 0.00 45 1003.5
20260506163724 72 262 7.0 8.0 0.00 0.00 0.00 44 1005.0
20260506163504 72 288 7.0 9.0 0.00 0.00 0.00 44 1003.6
20260506163225 72 259 8.0 9.0 0.00 0.00 0.00 43 1005.3
20260506163004 72 293 8.0 10.0 0.00 0.00 0.00 44 1003.6
20260506162724 72 281 8.0 11.0 0.00 0.00 0.00 43 1005.3
20260506162505 72 300 8.0 12.0 0.00 0.00 0.00 44 1003.5
20260506161725 72 260 6.0 8.0 0.00 0.00 0.00 42 1005.4
20260506161504 73 266 7.0 11.0 0.00 0.00 0.00 43 1003.6
20260506161224 73 251 7.0 10.0 0.00 0.00 0.00 42 1005.5
20260506161005 73 290 7.0 11.0 0.00 0.00 0.00 43 1003.6
20260506160724 73 273 9.0 11.0 0.00 0.00 0.00 42 1005.4
20260506160504 74 271 9.0 14.0 0.00 0.00 0.00 45 1003.6
20260506160231 73 294 10.0 13.0 0.00 0.00 0.00 43 1005.3
20260506160005 74 270 10.0 14.0 0.00 0.00 0.00 44 1003.6
20260506155504 74 281 9.0 14.0 0.00 0.00 0.00 45 1003.8
20260506155225 73 281 8.0 11.0 0.00 0.00 0.00 43 1005.4
20260506155005 74 264 10.0 17.0 0.00 0.00 0.00 45 1003.7
20260506154725 73 273 12.0 18.0 0.00 0.00 0.00 43 1005.5
20260506154004 74 242 13.0 17.0 0.00 0.00 0.00 44 1003.8
20260506153724 74 293 12.0 15.0 0.00 0.00 0.00 42 1005.4
20260506153505 74 253 10.0 14.0 0.00 0.00 0.00 44 1003.6
20260506153224 74 275 10.0 14.0 0.00 0.00 0.00 42 1005.5
20260506153004 74 247 10.0 17.0 0.00 0.00 0.00 44 1003.8
20260506152724 74 289 10.0 17.0 0.00 0.00 0.00 42 1005.5
20260506152504 75 267 11.0 17.0 0.00 0.00 0.00 43 1003.9
20260506152224 74 271 11.0 17.0 0.00 0.00 0.00 41 1005.6
20260506152005 75 284 11.0 13.0 0.00 0.00 0.00 44 1003.7
20260506151725 74 276 11.0 12.0 0.00 0.00 0.00 42 1005.7
20260506151504 74 258 10.0 13.0 0.00 0.00 0.00 43 1003.9
20260506151225 74 293 11.0 17.0 0.00 0.00 0.00 42 1005.4
20260506151004 74 273 12.0 17.0 0.00 0.00 0.00 43 1004.0
20260506150724 74 282 13.0 18.0 0.00 0.00 0.00 40 1005.7
20260506150505 74 270 13.0 17.0 0.00 0.00 0.00 43 1004.0
20260506150230 74 293 12.0 18.0 0.00 0.00 0.00 40 1005.3
20260506150005 75 248 12.0 15.0 0.00 0.00 0.00 43 1003.8
20260506145505 75 261 11.0 15.0 0.00 0.00 0.00 41 1003.7
20260506145225 75 252 11.0 16.0 0.00 0.00 0.00 40 1005.5
20260506145004 75 239 12.0 15.0 0.00 0.00 0.00 40 1003.7
20260506144725 76 245 12.0 18.0 0.00 0.00 0.00 39 1005.6
20260506144504 75 241 13.0 18.0 0.00 0.00 0.00 41 1003.8
20260506144224 75 287 16.0 21.0 0.00 0.00 0.00 41 1005.6
20260506144005 75 273 15.0 19.0 0.00 0.00 0.00 40 1003.8
20260506143724 75 299 15.0 21.0 0.00 0.00 0.00 39 1005.6
20260506143504 75 251 13.0 19.0 0.00 0.00 0.00 42 1003.6
20260506143225 76 273 11.0 17.0 0.00 0.00 0.00 41 1005.4
20260506142724 76 259 9.0 17.0 0.00 0.00 0.00 42 1005.2
20260506142505 75 269 10.0 14.0 0.00 0.00 0.00 44 1003.8
20260506142224 75 282 12.0 22.0 0.00 0.00 0.00 44 1005.4
20260506142004 75 280 13.0 21.0 0.00 0.00 0.00 45 1003.8
20260506141725 75 286 15.0 22.0 0.00 0.00 0.00 45 1005.4
20260506141504 75 292 17.0 21.0 0.00 0.00 0.00 45 1003.8
20260506141225 75 297 17.0 21.0 0.00 0.00 0.00 45 1005.6
20260506141005 75 297 18.0 21.0 0.00 0.00 0.00 45 1003.9
20260506140724 75 322 16.0 21.0 0.00 0.00 0.00 44 1005.7
20260506140504 75 282 15.0 19.0 0.00 0.00 0.00 45 1004.1
20260506140231 75 301 14.0 18.0 0.00 0.00 0.00 44 1005.5
20260506135004 75 256 12.0 17.0 0.00 0.00 0.00 46 1004.0
20260506134725 74 258 10.0 15.0 0.00 0.00 0.00 46 1005.5
20260506134504 74 243 9.0 13.0 0.00 0.00 0.00 46 1003.9
20260506133724 74 250 11.0 16.0 0.00 0.00 0.00 46 1005.5
20260506133504 74 236 11.0 17.0 0.00 0.00 0.00 46 1003.8
20260506133004 74 244 11.0 15.0 0.00 0.00 0.00 46 1003.9
20260506132724 74 257 12.0 16.0 0.00 0.00 0.00 45 1005.4
20260506132505 74 284 12.0 16.0 0.00 0.00 0.00 46 1003.9
20260506132224 75 273 13.0 16.0 0.00 0.00 0.00 45 1005.4
20260506132005 75 270 13.0 16.0 0.00 0.00 0.00 45 1003.6
20260506131725 75 256 12.0 16.0 0.00 0.00 0.00 44 1005.2
20260506131504 75 235 12.0 16.0 0.00 0.00 0.00 45 1003.8
20260506131005 75 226 10.0 13.0 0.00 0.00 0.00 45 1003.8
20260506130232 74 254 11.0 15.0 0.00 0.00 0.00 46 1005.4
20260506130005 74 240 10.0 15.0 0.00 0.00 0.00 48 1004.0
20260506125724 73 244 10.0 15.0 0.00 0.00 0.00 46 1005.8
20260506125224 73 243 10.0 15.0 0.00 0.00 0.00 46 1005.6
20260506125004 73 272 11.0 16.0 0.00 0.00 0.00 48 1004.0
20260506124724 73 234 10.0 15.0 0.00 0.00 0.00 47 1005.6
20260506124505 73 253 11.0 16.0 0.00 0.00 0.00 48 1004.0
20260506124225 74 233 10.0 16.0 0.00 0.00 0.00 47 1005.5
20260506124004 74 236 10.0 16.0 0.00 0.00 0.00 48 1004.1
20260506123724 74 266 11.0 16.0 0.00 0.00 0.00 46 1005.5
20260506123504 74 260 12.0 16.0 0.00 0.00 0.00 48 1004.0
20260506123225 74 287 12.0 15.0 0.00 0.00 0.00 47 1005.6
20260506122724 73 271 12.0 15.0 0.00 0.00 0.00 50 1005.6
20260506122504 73 258 11.0 14.0 0.00 0.00 0.00 51 1003.9
20260506122004 73 241 11.0 13.0 0.00 0.00 0.00 50 1003.9
20260506121505 73 244 12.0 15.0 0.00 0.00 0.00 51 1004.1
20260506121225 73 274 12.0 16.0 0.00 0.00 0.00 50 1005.6
20260506121004 73 244 13.0 15.0 0.00 0.00 0.00 51 1004.0
20260506120724 73 299 12.0 14.0 0.00 0.00 0.00 51 1005.6
20260506120504 73 249 12.0 14.0 0.00 0.00 0.00 51 1004.2
20260506120005 73 277 13.0 17.0 0.00 0.00 0.00 51 1004.0
20260506115504 72 286 12.0 17.0 0.00 0.00 0.00 52 1003.9
20260506115225 72 253 11.0 16.0 0.00 0.00 0.00 51 1005.4
20260506115004 72 258 10.0 13.0 0.00 0.00 0.00 52 1004.0
20260506114725 72 238 10.0 13.0 0.00 0.00 0.00 50 1005.6
20260506114504 72 260 11.0 16.0 0.00 0.00 0.00 52 1004.1
20260506114224 72 274 11.0 15.0 0.00 0.00 0.00 51 1005.6
20260506114005 72 256 10.0 16.0 0.00 0.00 0.00 52 1004.0
20260506113724 72 300 10.0 15.0 0.00 0.00 0.00 52 1005.6
20260506113005 72 265 10.0 13.0 0.00 0.00 0.00 52 1004.1
20260506112724 72 264 11.0 14.0 0.00 0.00 0.00 51 1005.6
20260506112224 72 268 12.0 14.0 0.00 0.00 0.00 51 1005.6
20260506112004 72 264 12.0 16.0 0.00 0.00 0.00 51 1004.1
20260506111725 72 258 12.0 15.0 0.00 0.00 0.00 51 1005.6
20260506111505 72 255 12.0 16.0 0.00 0.00 0.00 52 1004.0
20260506111224 72 252 11.0 15.0 0.00 0.00 0.00 51 1005.7
20260506111004 71 240 12.0 14.0 0.00 0.00 0.00 53 1004.2
20260506110725 71 255 12.0 16.0 0.00 0.00 0.00 52 1005.7
20260506110230 72 257 12.0 16.0 0.00 0.00 0.00 50 1005.7
20260506110005 72 263 11.0 16.0 0.00 0.00 0.00 51 1004.3
20260506105725 72 251 10.0 14.0 0.00 0.00 0.00 49 1005.4
20260506105504 72 257 10.0 17.0 0.00 0.00 0.00 51 1004.2
20260506105224 72 268 8.0 16.0 0.00 0.00 0.00 49 1005.7
20260506105005 72 287 9.0 17.0 0.00 0.00 0.00 51 1004.2
20260506104724 72 271 8.0 16.0 0.00 0.00 0.00 49 1005.6
20260506104504 72 277 9.0 14.0 0.00 0.00 0.00 51 1003.7
20260506104225 72 262 9.0 12.0 0.00 0.00 0.00 49 1005.3
20260506104004 72 277 9.0 12.0 0.00 0.00 0.00 51 1004.0
20260506103505 72 269 9.0 12.0 0.00 0.00 0.00 51 1004.0
20260506103224 71 254 9.0 12.0 0.00 0.00 0.00 52 1005.4
20260506103005 71 242 9.0 12.0 0.00 0.00 0.00 53 1003.9
20260506102725 71 248 9.0 14.0 0.00 0.00 0.00 51 1005.6
20260506102224 72 244 10.0 14.0 0.00 0.00 0.00 47 1005.3
20260506102004 72 249 11.0 15.0 0.00 0.00 0.00 51 1004.0
20260506101725 72 282 10.0 13.0 0.00 0.00 0.00 48 1005.3
20260506101505 72 236 11.0 14.0 0.00 0.00 0.00 51 1004.0
20260506101224 72 318 10.0 13.0 0.00 0.00 0.00 48 1005.4
20260506100724 71 313 10.0 12.0 0.00 0.00 0.00 52 1005.4
20260506100504 71 263 11.0 14.0 0.00 0.00 0.00 53 1003.9
20260506100230 71 299 9.0 12.0 0.00 0.00 0.00 52 1005.4
20260506100005 71 241 9.0 14.0 0.00 0.00 0.00 53 1003.9
20260506095724 71 257 8.0 10.0 0.00 0.00 0.00 51 1005.4
20260506095505 71 230 9.0 14.0 0.00 0.00 0.00 53 1004.1
20260506095224 71 234 8.0 14.0 0.00 0.00 0.00 53 1005.3
20260506094724 70 273 9.0 14.0 0.00 0.00 0.00 52 1005.5
20260506094505 70 233 9.0 14.0 0.00 0.00 0.00 53 1004.2
20260506094224 70 254 10.0 12.0 0.00 0.00 0.00 52 1005.3
20260506094004 70 237 10.0 14.0 0.00 0.00 0.00 54 1003.8
20260506093505 69 246 10.0 17.0 0.00 0.00 0.00 55 1003.9
20260506093224 69 287 11.0 16.0 0.00 0.00 0.00 55 1005.4
20260506092724 69 303 12.0 16.0 0.00 0.00 0.00 54 1005.2
20260506092224 70 304 11.0 16.0 0.00 0.00 0.00 54 1005.2
20260506092004 70 254 10.0 16.0 0.00 0.00 0.00 55 1003.9
20260506091724 70 295 9.0 16.0 0.00 0.00 0.00 54 1005.1
20260506091505 70 244 9.0 12.0 0.00 0.00 0.00 54 1003.7
20260506091224 70 256 9.0 11.0 0.00 0.00 0.00 54 1005.3
20260506091004 70 251 9.0 12.0 0.00 0.00 0.00 55 1003.8
20260506090724 69 247 9.0 11.0 0.00 0.00 0.00 55 1005.4
20260506090004 70 233 11.0 16.0 0.00 0.00 0.00 56 1003.7
20260506085724 69 232 11.0 15.0 0.00 0.00 0.00 56 1005.1
20260506085225 69 277 11.0 15.0 0.00 0.00 0.00 55 1005.2
20260506085005 69 248 11.0 16.0 0.00 0.00 0.00 58 1003.8
20260506084724 68 311 10.0 14.0 0.00 0.00 0.00 58 1005.3
20260506084504 68 253 9.0 12.0 0.00 0.00 0.00 58 1003.7
20260506084225 68 283 9.0 13.0 0.00 0.00 0.00 57 1005.2
20260506084004 68 237 10.0 13.0 0.00 0.00 0.00 59 1003.7
20260506083724 67 265 10.0 13.0 0.00 0.00 0.00 59 1005.6
20260506083505 67 249 11.0 13.0 0.00 0.00 0.00 59 1003.9
20260506083224 67 251 10.0 13.0 0.00 0.00 0.00 58 1005.4
20260506082724 67 250 9.0 12.0 0.00 0.00 0.00 58 1005.4
20260506082504 67 249 9.0 14.0 0.00 0.00 0.00 58 1003.7
20260506082004 67 208 11.0 16.0 0.00 0.00 0.00 59 1003.8
20260506081724 67 239 12.0 15.0 0.00 0.00 0.00 57 1005.6
20260506081505 67 229 14.0 16.0 0.00 0.00 0.00 59 1003.7
20260506081005 67 223 14.0 15.0 0.00 0.00 0.00 58 1003.6
20260506080725 67 211 11.0 15.0 0.00 0.00 0.00 59 1005.2
20260506080505 67 210 13.0 15.0 0.00 0.00 0.00 58 1003.6
20260506080230 67 212 12.0 15.0 0.00 0.00 0.00 58 1005.3
20260506073505 66 226 10.0 16.0 0.00 0.00 0.00 60 1003.6
20260506073225 66 238 11.0 16.0 0.00 0.00 0.00 61 1005.0
20260506073004 66 239 11.0 16.0 0.00 0.00 0.00 62 1003.6
20260506072224 66 253 11.0 14.0 0.00 0.00 0.00 60 1005.0
20260506072005 66 221 11.0 13.0 0.00 0.00 0.00 62 1003.6
20260506071724 65 248 11.0 15.0 0.00 0.00 0.00 60 1005.2
20260506071504 66 222 10.0 15.0 0.00 0.00 0.00 61 1003.4
20260506070504 66 226 10.0 15.0 0.00 0.00 0.00 62 1003.2
20260506062504 62 217 8.0 11.0 0.00 0.00 0.00 66 1003.0
20260506062224 62 208 8.0 14.0 0.00 0.00 0.00 65 1004.7
20260506061725 61 223 9.0 14.0 0.00 0.00 0.00 64 1004.9
20260506061504 62 205 10.0 14.0 0.00 0.00 0.00 65 1003.2
20260506061225 61 231 9.0 14.0 0.00 0.00 0.00 64 1004.6
20260506061004 62 203 11.0 14.0 0.00 0.00 0.00 64 1003.2
20260506060724 62 224 8.0 13.0 0.00 0.00 0.00 64 1004.7
20260506060504 62 201 10.0 11.0 0.00 0.00 0.00 65 1003.1
20260506060231 62 220 8.0 13.0 0.00 0.00 0.00 64 1004.7
20260506051225 61 210 7.0 9.0 0.00 0.00 0.00 65 1004.7
20260506051004 60 214 6.0 10.0 0.00 0.00 0.00 67 1002.8
20260506050724 60 201 5.0 9.0 0.00 0.00 0.00 65 1005.0
20260506050504 60 215 6.0 10.0 0.00 0.00 0.00 69 1003.0
20260506050231 60 209 5.0 11.0 0.00 0.00 0.00 68 1004.7
20260506045004 59 215 5.0 8.0 0.00 0.00 0.00 74 1003.2
20260506044725 58 225 5.0 8.0 0.00 0.00 0.00 75 1004.8
20260506044004 57 204 4.0 5.0 0.00 0.00 0.00 81 1003.3
20260506043724 55 188 4.0 5.0 0.00 0.00 0.00 94 1004.8
20260506043505 56 193 4.0 5.0 0.00 0.00 0.00 85 1003.1
20260506043225 54 179 3.0 5.0 0.00 0.00 0.00 96 1005.0
20260506043004 55 186 3.0 5.0 0.00 0.00 0.00 86 1003.3
20260506042724 53 186 3.0 4.0 0.00 0.00 0.00 97 1005.0
20260506042504 54 183 2.0 3.0 0.00 0.00 0.00 88 1003.2
20260506042005 54 171 2.0 3.0 0.00 0.00 0.00 90 1003.2
20260506041725 51 168 2.0 3.0 0.00 0.00 0.00 99 1005.0
20260506041504 53 153 2.0 3.0 0.00 0.00 0.00 92 1003.3
20260506041224 51 173 2.0 4.0 0.00 0.00 0.00 99 1004.8
20260506041005 53 132 2.0 2.0 0.00 0.00 0.00 92 1003.3
20260506040724 50 158 2.0 4.0 0.00 0.00 0.00 99 1004.8
20260506040504 51 150 2.0 2.0 0.00 0.00 0.00 94 1003.1
20260506040230 50 150 2.0 2.0 0.00 0.00 0.00 99 1005.1
20260506040004 51 165 2.0 2.0 0.00 0.00 0.00 94 1003.2
20260506035725 50 155 2.0 2.0 0.00 0.00 0.00 99 1005.1
20260506035505 51 159 1.0 2.0 0.00 0.00 0.00 94 1003.1
20260506035224 50 144 1.0 2.0 0.00 0.00 0.00 99 1004.9
20260506035004 51 142 1.0 2.0 0.00 0.00 0.00 94 1003.2
20260506034724 50 129 0.0 2.0 0.00 0.00 0.00 99 1005.2
20260506034504 51 124 1.0 2.0 0.00 0.00 0.00 94 1003.3
20260506034225 50 123 1.0 2.0 0.00 0.00 0.00 99 1004.9
20260506034004 51 119 2.0 2.0 0.00 0.00 0.00 94 1003.3
20260506033724 50 113 1.0 2.0 0.00 0.00 0.00 99 1005.1
20260506033504 51 115 2.0 2.0 0.00 0.00 0.00 94 1003.2
20260506033224 50 108 2.0 2.0 0.00 0.00 0.00 99 1005.0
20260506033005 51 117 2.0 3.0 0.00 0.00 0.00 94 1003.2
20260506032725 50 116 2.0 3.0 0.00 0.00 0.00 99 1005.0
20260506032505 51 111 2.0 3.0 0.00 0.00 0.00 94 1003.3
20260506032004 51 109 2.0 3.0 0.00 0.00 0.00 94 1003.3
20260506031724 50 105 2.0 2.0 0.00 0.00 0.00 98 1005.1
20260506031504 51 116 2.0 2.0 0.00 0.00 0.00 94 1003.3
20260506030504 51 117 2.0 2.0 0.00 0.00 0.00 94 1003.5
20260506030004 51 110 2.0 3.0 0.00 0.00 0.00 94 1003.4
20260506025505 51 114 2.0 3.0 0.00 0.00 0.00 94 1003.3
20260506025225 50 108 2.0 2.0 0.00 0.00 0.00 98 1005.1
20260506025004 51 113 2.0 2.0 0.00 0.00 0.00 94 1003.5
20260506024504 50 89 2.0 2.0 0.00 0.00 0.00 93 1003.4
20260506024005 50 101 2.0 2.0 0.00 0.00 0.00 93 1003.3
20260506023724 50 100 1.0 2.0 0.00 0.00 0.00 97 1005.1
20260506023504 51 110 2.0 2.0 0.00 0.00 0.00 93 1003.4
20260506023225 50 115 1.0 2.0 0.00 0.00 0.00 97 1005.2
20260506023004 51 113 2.0 2.0 0.00 0.00 0.00 93 1003.3
20260506022724 50 124 1.0 2.0 0.00 0.00 0.00 96 1005.2
20260506022504 51 112 1.0 2.0 0.00 0.00 0.00 93 1003.4
20260506022224 50 120 1.0 2.0 0.00 0.00 0.00 97 1005.3
20260506022004 51 104 1.0 2.0 0.00 0.00 0.00 93 1003.4
20260506021725 50 0 0.0 0.0 0.00 0.00 0.00 97 1005.3
20260506021224 50 0 0.0 0.0 0.00 0.00 0.00 96 1005.4
20260506021005 51 0 0.0 0.0 0.00 0.00 0.00 93 1003.5
20260506020725 51 135 0.0 1.0 0.00 0.00 0.00 96 1005.3
20260506020504 53 135 0.0 1.0 0.00 0.00 0.00 93 1003.5
20260506020230 51 135 0.0 2.0 0.00 0.00 0.00 96 1005.3
20260506020004 53 130 0.0 2.0 0.00 0.00 0.00 93 1003.5
20260506015724 52 125 1.0 2.0 0.00 0.00 0.00 96 1005.4
20260506015504 53 127 1.0 2.0 0.00 0.00 0.00 93 1003.5
20260506015225 52 129 2.0 2.0 0.00 0.00 0.00 96 1005.3
20260506015004 53 134 2.0 3.0 0.00 0.00 0.00 93 1003.6
20260506014725 52 133 2.0 3.0 0.00 0.00 0.00 96 1005.4
20260506014224 51 135 1.0 3.0 0.00 0.00 0.00 96 1005.2
20260506013724 52 135 1.0 2.0 0.00 0.00 0.00 96 1005.4
20260506013504 53 115 0.0 2.0 0.00 0.00 0.00 92 1003.7
20260506013225 52 135 1.0 2.0 0.00 0.00 0.00 95 1005.3
20260506013004 53 128 1.0 2.0 0.00 0.00 0.00 92 1003.7
20260506012725 52 135 2.0 2.0 0.00 0.00 0.00 95 1005.4
20260506012505 53 121 2.0 3.0 0.00 0.00 0.00 92 1003.7
20260506012225 52 129 2.0 2.0 0.00 0.00 0.00 94 1005.2
20260506012004 53 115 2.0 3.0 0.00 0.00 0.00 92 1003.5
20260506011505 53 121 1.0 3.0 0.00 0.00 0.00 92 1003.5
20260506011224 52 125 1.0 3.0 0.00 0.00 0.00 94 1005.4
20260506010725 52 118 0.0 2.0 0.00 0.00 0.00 94 1005.4
20260506010230 53 123 0.0 1.0 0.00 0.00 0.00 94 1005.4
20260506005724 53 127 0.0 2.0 0.00 0.00 0.00 94 1005.5
20260506005505 54 118 1.0 2.0 0.00 0.00 0.00 91 1003.8
20260506005224 53 119 1.0 2.0 0.00 0.00 0.00 94 1005.5
20260506005004 54 115 2.0 3.0 0.00 0.00 0.00 91 1003.9
20260506004505 54 118 3.0 4.0 0.00 0.00 0.00 90 1003.9
20260506004224 53 126 3.0 4.0 0.00 0.00 0.00 94 1005.4
20260506004004 54 118 3.0 4.0 0.00 0.00 0.00 90 1003.9
20260506003504 54 105 4.0 4.0 0.00 0.00 0.00 90 1003.9
20260506003225 53 116 3.0 3.0 0.00 0.00 0.00 94 1005.6
20260506003004 54 94 2.0 4.0 0.00 0.00 0.00 90 1003.8
20260506002724 53 115 2.0 3.0 0.00 0.00 0.00 94 1005.5
20260506002504 54 99 1.0 4.0 0.00 0.00 0.00 90 1003.7
20260506002224 53 126 2.0 3.0 0.00 0.00 0.00 93 1005.6
20260506002004 54 101 2.0 3.0 0.00 0.00 0.00 89 1003.8
20260506001725 54 125 2.0 3.0 0.00 0.00 0.00 92 1005.7
20260506001504 54 102 1.0 3.0 0.00 0.00 0.00 89 1004.0
20260506001224 53 117 1.0 3.0 0.00 0.00 0.00 93 1005.4
20260506000724 53 97 1.0 2.0 0.00 0.00 0.00 93 1005.5
20260506000231 53 98 1.0 2.0 0.00 0.00 0.00 92 1005.6
20260506000004 54 0 0.0 0.0 0.00 0.00 0.00 88 1003.9
20260505235724 53 101 0.0 2.0 0.00 0.00 0.00 92 1005.4
20260505235504 54 135 0.0 2.0 0.00 0.00 0.00 87 1004.1
20260505235004 54 128 0.0 2.0 0.00 0.00 0.00 87 1004.1
20260505234504 54 131 0.0 1.0 0.00 0.00 0.00 87 1004.1
20260505234225 54 97 0.0 2.0 0.00 0.00 0.00 91 1005.7
20260505234004 55 90 1.0 2.0 0.00 0.00 0.00 88 1004.1
20260505233504 55 103 2.0 2.0 0.00 0.00 0.00 88 1004.0
20260505233225 54 110 1.0 2.0 0.00 0.00 0.00 91 1005.7
20260505233004 55 116 1.0 2.0 0.00 0.00 0.00 87 1004.0
20260505232724 54 119 1.0 3.0 0.00 0.00 0.00 90 1005.7
20260505232504 55 109 2.0 4.0 0.00 0.00 0.00 87 1004.0
20260505232225 54 89 2.0 4.0 0.00 0.00 0.00 90 1005.7
20260505232004 55 89 3.0 4.0 0.00 0.00 0.00 86 1004.1
20260505231725 54 66 2.0 4.0 0.00 0.00 0.00 89 1005.8
20260505231504 55 64 3.0 4.0 0.00 0.00 0.00 85 1004.3
20260505231225 54 145 2.0 4.0 0.00 0.00 0.00 89 1005.9
20260505231005 55 94 2.0 4.0 0.00 0.00 0.00 86 1004.4
20260505230504 55 107 1.0 2.0 0.00 0.00 0.00 85 1004.1
20260505230005 55 246 1.0 3.0 0.00 0.00 0.00 85 1004.2
20260505225725 54 282 1.0 3.0 0.00 0.00 0.00 87 1006.1
20260505225504 55 282 2.0 4.0 0.00 0.00 0.00 85 1004.3
20260505225224 54 154 2.0 4.0 0.00 0.00 0.00 87 1005.9
20260505225005 56 242 3.0 4.0 0.00 0.00 0.00 85 1004.3
20260505224724 54 150 2.0 4.0 0.00 0.00 0.00 86 1005.7
20260505224504 56 165 3.0 4.0 0.00 0.00 0.00 84 1004.3
20260505224225 55 191 2.0 4.0 0.00 0.00 0.00 86 1006.0
20260505224004 56 174 2.0 4.0 0.00 0.00 0.00 85 1004.3
20260505223725 56 192 1.0 2.0 0.00 0.00 0.00 86 1005.8
20260505223225 56 198 1.0 2.0 0.00 0.00 0.00 86 1005.9
20260505223004 57 183 1.0 3.0 0.00 0.00 0.00 84 1004.3
20260505222504 57 151 2.0 3.0 0.00 0.00 0.00 82 1004.2
20260505222225 56 151 1.0 3.0 0.00 0.00 0.00 85 1006.1
20260505222004 58 130 1.0 3.0 0.00 0.00 0.00 82 1004.3
20260505221724 56 159 1.0 2.0 0.00 0.00 0.00 85 1006.0
20260505221504 58 257 2.0 2.0 0.00 0.00 0.00 81 1004.3
20260505221224 57 45 1.0 2.0 0.00 0.00 0.00 85 1005.9
20260505221005 59 302 2.0 2.0 0.00 0.00 0.00 83 1004.3
20260505220725 58 57 1.0 2.0 0.00 0.00 0.00 84 1005.9
20260505220504 58 330 2.0 3.0 0.00 0.00 0.00 81 1004.1
20260505220231 58 344 2.0 4.0 0.00 0.00 0.00 84 1005.9
20260505220005 58 238 3.0 4.0 0.00 0.00 0.00 81 1004.3
20260505215725 58 325 3.0 4.0 0.00 0.00 0.00 83 1006.0